Corpus Christi, TX

3:18 AM CST on December 06, 2016 (GMT -0600)
North Padre Island

Weather History for KOPM - January, 2013

Change the Weather History Date:

Tuesday, January 1, 2013

  Actual Average (KHRL) Record (KHRL)
Temperature  
Mean Temperature 66 °F 59 °F  
Max Temperature 71 °F 70 °F 89 °F (1986)
Min Temperature 60 °F 49 °F 28 °F (1894)
Degree Days  
Heating Degree Days 0 7  
Month to date heating degree days 7  
Since 1 July heating degree days 255  
Cooling Degree Days 0 2  
Month to date cooling degree days 2  
Year to date cooling degree days 2  
Growing Degree Days 16 (Base 50)    
Moisture  
Dew Point 61 °F    
Average Humidity 83    
Maximum Humidity 94    
Minimum Humidity 72    
Precipitation  
Precipitation 0.00 in 0.02 in 0.72 in (1958)
Month to date precipitation 0.02  
Year to date precipitation 0.02  
Sea Level Pressure  
Sea Level Pressure 30.01 in    
Wind  
Wind Speed 13 mph (NNW)    
Max Wind Speed 21 mph    
Max Gust Speed 30 mph    
Visibility 8 miles    
Events      
T = Trace of Precipitation, MM = Missing Value Source: NWS Daily Summary

Daily Weather History Graph

Daily Weather History Graph

Search for Another Location

Airport or City:

Trip Planner

Search our weather history database for the weather conditions in past years. The results will help you decide how hot, cold, wet, or windy it might be!

Date:

Astronomy

Jan. 01, 2013 Rise Set
Actual Time 7:16 AM CST 5:46 PM CST
Civil Twilight 6:51 AM CST 6:11 PM CST
Nautical Twilight 6:22 AM CST 6:40 PM CST
Astronomical Twilight 5:54 AM CST 7:09 PM CST
Moon 9:52 PM CST (1/1) 9:53 AM CST (1/1)
Length of Visible Light 11h 20m
Length of Day
10h 29m
Waning Gibbous, 83% of the Moon is Illuminated
Jan 1
Waning Gibbous
Jan 4
Last Quarter
Jan 11
New
Jan 18
First Quarter
Jan 26
Full

Hourly Weather History & Observations

Time (CST) Temp. Dew Point Humidity Pressure Visibility Wind Dir Wind Speed Gust Speed Precip Events Conditions
12:15 AM 71.6 °F 69.8 °F 94% 29.94 in 5.0 mi SSE 9.2 mph - N/A   Overcast
12:35 AM 71.6 °F 69.8 °F 94% 29.93 in 5.0 mi SSE 10.4 mph - N/A   Overcast
12:55 AM 71.6 °F 69.8 °F 94% 29.93 in 5.0 mi South 12.7 mph - N/A   Overcast
1:15 AM 71.6 °F 69.8 °F 94% 29.93 in 5.0 mi South 12.7 mph - N/A   Mostly Cloudy
1:35 AM 71.6 °F 69.8 °F 94% 29.93 in 5.0 mi South 12.7 mph - N/A   Overcast
1:55 AM 71.6 °F 69.8 °F 94% 29.92 in 6.0 mi South 10.4 mph - N/A   Overcast
2:15 AM 71.6 °F 69.8 °F 94% 29.92 in 6.0 mi SSW 11.5 mph - N/A   Overcast
2:35 AM 71.6 °F 68.0 °F 88% 29.92 in 6.0 mi SSW 11.5 mph - N/A   Overcast
3:15 AM 71.6 °F 68.0 °F 88% 29.91 in 6.0 mi South 9.2 mph - N/A   Mostly Cloudy
3:35 AM 71.6 °F 68.0 °F 88% 29.91 in 6.0 mi South 9.2 mph - N/A   Overcast
3:55 AM 71.6 °F 68.0 °F 88% 29.92 in 7.0 mi SSW 11.5 mph - N/A   Mostly Cloudy
4:15 AM 71.6 °F 68.0 °F 88% 29.92 in 7.0 mi SSW 9.2 mph - N/A   Mostly Cloudy
4:35 AM 71.6 °F 68.0 °F 88% 29.91 in 7.0 mi South 10.4 mph - N/A   Overcast
4:55 AM 71.6 °F 68.0 °F 88% 29.91 in 7.0 mi South 10.4 mph - N/A   Mostly Cloudy
5:15 AM 71.6 °F 68.0 °F 88% 29.90 in 7.0 mi South 10.4 mph - N/A   Mostly Cloudy
5:35 AM 71.6 °F 68.0 °F 88% 29.91 in 7.0 mi South 11.5 mph - N/A   Scattered Clouds
5:55 AM 71.6 °F 68.0 °F 88% 29.92 in 7.0 mi South 12.7 mph - N/A   Mostly Cloudy
6:15 AM 71.6 °F 68.0 °F 88% 29.92 in 7.0 mi South 10.4 mph - N/A   Overcast
6:35 AM 71.6 °F 68.0 °F 88% 29.92 in 6.0 mi South 12.7 mph - N/A   Overcast
6:55 AM 71.6 °F 68.0 °F 88% 29.91 in 6.0 mi South 15.0 mph - N/A   Mostly Cloudy
7:15 AM 71.6 °F 68.0 °F 88% 29.93 in 7.0 mi South 15.0 mph - N/A   Scattered Clouds
7:35 AM 71.6 °F 68.0 °F 88% 29.93 in - South 18.4 mph - N/A   Unknown
7:55 AM 71.6 °F 68.0 °F 88% 29.93 in 5.0 mi South 18.4 mph - N/A   Scattered Clouds
8:15 AM 71.6 °F 68.0 °F 88% 29.95 in 5.0 mi SW 19.6 mph - N/A   Mostly Cloudy
8:20 AM 71.6 °F 68.0 °F 88% 29.96 in 5.0 mi SW 19.6 mph - N/A   Mostly Cloudy
10:15 AM 69.8 °F 66.2 °F 88% 30.01 in 4.0 mi NW 13.8 mph - N/A   Scattered Clouds
10:35 AM 69.8 °F 66.2 °F 88% 30.01 in 7.0 mi NW 11.5 mph - N/A   Scattered Clouds
10:55 AM 69.8 °F 66.2 °F 88% 30.02 in 3.0 mi NW 15.0 mph - N/A   Scattered Clouds
11:15 AM 68.0 °F 64.4 °F 88% 30.02 in 3.0 mi WNW 18.4 mph - N/A   Partly Cloudy
11:35 AM 66.2 °F 62.6 °F 88% 30.01 in 4.0 mi NNW 17.3 mph 27.6 mph N/A   Scattered Clouds
11:55 AM 64.4 °F 62.6 °F 94% 30.01 in 6.0 mi NNW 11.5 mph 20.7 mph N/A   Mostly Cloudy
12:15 PM 62.6 °F 60.8 °F 94% 30.00 in 6.0 mi North 13.8 mph 21.9 mph N/A   Scattered Clouds
12:35 PM 62.6 °F 59.0 °F 88% 29.99 in 7.0 mi North 12.7 mph 27.6 mph N/A   Mostly Cloudy
1:15 PM 62.6 °F 59.0 °F 88% 30.01 in 7.0 mi North 15.0 mph 23.0 mph N/A   Mostly Cloudy
1:35 PM 62.6 °F 57.2 °F 82% 29.99 in 7.0 mi NNW 16.1 mph 24.2 mph N/A   Mostly Cloudy
1:55 PM 62.6 °F 57.2 °F 82% 29.99 in 8.0 mi North 15.0 mph 24.2 mph N/A   Mostly Cloudy
2:15 PM 62.6 °F 57.2 °F 82% 30.00 in 8.0 mi North 17.3 mph 25.3 mph N/A   Overcast
2:35 PM 62.6 °F 55.4 °F 77% 30.00 in 9.0 mi North 16.1 mph 29.9 mph N/A   Overcast
2:55 PM 62.6 °F 55.4 °F 77% 30.01 in 9.0 mi North 19.6 mph 29.9 mph N/A   Overcast
3:15 PM 62.6 °F 55.4 °F 77% 30.01 in 9.0 mi North 17.3 mph 25.3 mph N/A   Overcast
3:35 PM 62.6 °F 55.4 °F 77% 30.02 in 9.0 mi North 13.8 mph 26.5 mph N/A   Overcast
3:55 PM 62.6 °F 55.4 °F 77% 30.03 in 9.0 mi North 20.7 mph - N/A   Overcast
4:15 PM 62.6 °F 53.6 °F 72% 30.03 in 9.0 mi North 17.3 mph 26.5 mph N/A   Overcast
4:35 PM 62.6 °F 53.6 °F 72% 30.04 in 8.0 mi North 15.0 mph 27.6 mph N/A   Overcast
4:55 PM 62.6 °F 55.4 °F 77% 30.04 in 5.0 mi North 13.8 mph 24.2 mph N/A   Haze
5:15 PM 62.6 °F 55.4 °F 77% 30.05 in 9.0 mi North 13.8 mph 24.2 mph N/A   Mostly Cloudy
5:35 PM 62.6 °F 55.4 °F 77% 30.05 in 10.0 mi North 17.3 mph 24.2 mph N/A   Mostly Cloudy
5:55 PM 62.6 °F 55.4 °F 77% 30.05 in 10.0 mi North 12.7 mph 23.0 mph N/A   Mostly Cloudy
6:15 PM 60.8 °F 55.4 °F 82% 30.07 in 10.0 mi North 16.1 mph 21.9 mph N/A   Mostly Cloudy
6:35 PM 60.8 °F 53.6 °F 77% 30.07 in 9.0 mi North 16.1 mph - N/A   Mostly Cloudy
6:55 PM 60.8 °F 53.6 °F 77% 30.09 in 9.0 mi North 16.1 mph 23.0 mph N/A   Mostly Cloudy
7:15 PM 62.6 °F 53.6 °F 72% 30.09 in 10.0 mi North 15.0 mph 20.7 mph N/A   Mostly Cloudy
7:35 PM 62.6 °F 53.6 °F 72% 30.10 in 10.0 mi North 13.8 mph 20.7 mph N/A   Overcast
7:55 PM 62.6 °F 53.6 °F 72% 30.10 in 10.0 mi North 15.0 mph 24.2 mph N/A   Overcast
8:15 PM 62.6 °F 53.6 °F 72% 30.11 in 10.0 mi North 13.8 mph 23.0 mph N/A   Mostly Cloudy
8:35 PM 62.6 °F 53.6 °F 72% 30.13 in 10.0 mi North 11.5 mph 23.0 mph N/A   Mostly Cloudy
8:55 PM 60.8 °F 53.6 °F 77% 30.12 in 10.0 mi North 12.7 mph 23.0 mph N/A   Mostly Cloudy
9:15 PM 60.8 °F 53.6 °F 77% 30.12 in 10.0 mi North 16.1 mph - N/A   Overcast
9:35 PM 60.8 °F 53.6 °F 77% 30.13 in 10.0 mi North 12.7 mph 19.6 mph N/A   Mostly Cloudy
9:55 PM 60.8 °F 53.6 °F 77% 30.13 in 10.0 mi North 11.5 mph 20.7 mph N/A   Mostly Cloudy
10:15 PM 60.8 °F 53.6 °F 77% 30.14 in 10.0 mi North 11.5 mph 18.4 mph N/A   Overcast
10:35 PM 60.8 °F 53.6 °F 77% 30.13 in 10.0 mi North 12.7 mph - N/A   Overcast
10:55 PM 60.8 °F 51.8 °F 72% 30.13 in 10.0 mi North 12.7 mph 20.7 mph N/A   Overcast
11:15 PM 60.8 °F 53.6 °F 77% 30.13 in 10.0 mi North 10.4 mph 19.6 mph N/A   Overcast
11:35 PM 60.8 °F 53.6 °F 77% 30.13 in 10.0 mi North 9.2 mph 18.4 mph N/A   Overcast
11:55 PM 60.8 °F 51.8 °F 72% 30.12 in 10.0 mi North 10.4 mph 18.4 mph N/A   Overcast